DELTA 1 DEB, 7016

Orbit data source: Space-Track

DELTA 1 DEB, 7016 is space debris in LEO originally from a launch on Tue, 06 Nov 1973 UTC launched from the Air Force Western Test Range (AFWTR). Debris objects in space refer to the collection of defunct objects orbiting the Earth. Examples of debris include non-operational satellites, rocket bodies, and fragments generated from explosions, collisions, or faulty payload assembly.

Loading next visibility...
Identifier
7016, 1973-086G
Orbit
LEO
Country
Flag of USUS
Related business
Manufacturer
Unknown
Mission
Spacecraft
Bus & Motor
Unknown
Mass
Unknown
Launch date (UTC)
1973-11-06 (52 years ago)
Launch vehicle
Unknown
Launch site
Air Force Western Test Range (AFWTR)
Object type
Payload
Rocket body
Debris
Shape & HBR
Unknown shape, 0.4 m
Radar Cross Section
Medium (>0.1 m² and <1 m²)

Expand to show TLE details & history
Last TLE update: 7 hours ago

TLE from 7 hours ago
0 DELTA 1 DEB
1  7016U 73086G   25300.40774485  .00000011  00000-0  74420-3 0  9999
2  7016 101.6681  96.0019 0512021  28.3036  26.8917 11.45494644172765
Epoch: 2025-10-27T09:47Z
TLE epoch observation values (Epoch: 2025-10-27T09:47:09.155Z)
Latitude
56.25336°
Longitude
-104.71025°
Altitude
1,568.793 km
Speed
7.247 km/s
True Right ascension
05h 12m 21s
True Declination
56° 06' 38"
Sunlit
Object was in daylight at epoch
Visualization orbit readout
Latitude
Unknown
Longitude
Unknown
Altitude
Unknown
Speed
Unknown
Apparent Right ascension
Unknown
Apparent Declination
Unknown
Sunlit
N/A
Visualization observer readout
Local Sidereal Time
11:53:54
Azimuth
Unknown
Elevation
Unknown
Doppler factor
Unknown
Orbital elements
Apogee altitude
2,357.697 km
Perigee altitude
1,506.685 km
Semi-major axis
8,310.328 km
Eccentricity
0.0512
Inclination
101.6681°
RAAN
96.0019°
Arg. of periapsis
28.3036°
True anomaly
29.70462°
Mean anomaly
26.8917°
Eccentric anomaly
28.28169°
Mean motion
2.86494 °/min
Orbital period
125.66 mins
BSTAR
0.0007442
Loading maneuver chart data...
Computing Atmospheric mass density...
Loading historical data...
Loading historical data...
Loading historical data...
Loading historical data...
Loading historical data...
Loading historical data...
Loading historical data...

Documentation

Showing up to 5 results
|